Location: Sperry Observatory
(40.6664°N, 74.3236°W)
Time: 13:43:12
(UTC-04:00)

UOSAT-12 - Visible Passes

Search period start: 24 May 2017 00:00
Search period end: 03 June 2017 00:00
Orbit: 604 x 650 km, 64.6° (Epoch: 24 May)

Date Brightness Start Highest point End Pass type
(mag) Time Alt. Az. Time Alt. Az. Time Alt. Az.
24 May 9.7 01:19:03 11° WNW 01:21:28 15° NW 01:24:09 10° N visible
24 May 9.1 22:22:55 15° ENE 22:22:55 15° ENE 22:24:09 10° ENE visible
25 May 7.9 00:00:08 43° WNW 00:00:38 45° NW 00:05:03 10° NNE visible
25 May 7.6 22:41:00 41° E 22:41:00 41° E 22:44:46 10° NE visible
26 May 9.2 00:18:12 15° W 00:20:42 24° NW 00:24:25 10° N visible
26 May 7.0 22:58:45 44° SW 23:00:09 83° WNW 23:04:45 10° NNE visible
27 May 10.0 00:38:44 10° WNW 00:40:58 13° NW 00:43:15 10° N visible
27 May 8.2 21:38:46 20° SE 21:40:12 23° ESE 21:43:49 10° ENE visible
27 May 8.4 23:15:52 10° WSW 23:20:04 39° NW 23:24:23 10° NNE visible
28 May 7.2 21:55:26 10° SSW 21:59:47 52° ESE 22:04:14 10° NE visible
28 May 9.6 23:36:44 10° W 23:40:11 21° NW 23:43:40 10° N visible
29 May 7.3 22:15:03 10° SW 22:19:33 71° NW 22:24:08 10° NNE visible
29 May 10.2 23:58:46 10° WNW 00:00:30 12° NW 00:02:15 10° NNW visible
30 May 8.0 20:55:44 10° S 20:59:32 27° ESE 21:03:24 10° NE visible
30 May 8.8 22:35:23 10° WSW 22:39:30 34° NW 22:43:42 10° NNE visible
31 May 7.1 21:14:43 10° SSW 21:19:09 62° ESE 21:23:41 10° NE visible
31 May 10.0 22:56:28 10° W 22:59:40 18° NW 23:02:54 10° N visible
01 Jun 7.7 21:34:30 10° SW 21:38:57 60° NW 21:43:30 10° NNE visible
01 Jun 10.6 23:19:04 10° NW 23:20:02 11° NW 23:21:00 10° NNW visible
02 Jun 10.4 04:25:05 10° N 04:28:02 16° NE 04:30:59 10° E visible
02 Jun 9.3 21:54:58 10° WSW 21:58:57 29° NW 22:03:00 10° NNE visible
